Time,TemperatureF,DewpointF,PressureIn,WindDirection,WindDirectionDegrees,WindSpeedMPH,WindSpeedGustMPH,Humidity,HourlyPrecipIn,Conditions,Clouds,dailyrainin,SoftwareType,DateUTC
2013-09-30 00:11:00,47.8,47.5,30.00,SE,135,0.0,-999.0,99,-99.99,,,0.00,Acu-Link.com,2013-09-30 04:11:00,
2013-09-30 00:26:00,48.0,47.7,30.00,SSE,157,0.0,-999.0,99,-99.99,,,0.00,Acu-Link.com,2013-09-30 04:26:00,
2013-09-30 00:42:00,48.0,47.7,30.00,ESE,112,0.0,-999.0,99,-99.99,,,0.00,Acu-Link.com,2013-09-30 04:42:00,
2013-09-30 00:57:00,48.2,47.9,30.00,ESE,112,0.0,-999.0,99,-99.99,,,0.00,Acu-Link.com,2013-09-30 04:57:00,
2013-09-30 01:12:00,48.2,47.9,30.00,ESE,112,0.0,-999.0,99,-99.99,,,0.00,Acu-Link.com,2013-09-30 05:12:00,
2013-09-30 01:27:00,48.2,47.9,30.00,SE,135,0.0,-999.0,99,-99.99,,,0.00,Acu-Link.com,2013-09-30 05:27:00,
2013-09-30 01:43:00,48.4,48.1,30.00,SE,135,0.0,-999.0,99,-99.99,,,0.00,Acu-Link.com,2013-09-30 05:43:00,
2013-09-30 01:58:00,48.4,48.1,30.00,SE,135,0.0,-999.0,99,-99.99,,,0.00,Acu-Link.com,2013-09-30 05:58:00,
2013-09-30 02:13:00,48.4,48.1,30.00,SE,135,0.0,-999.0,99,-99.99,,,0.00,Acu-Link.com,2013-09-30 06:13:00,
2013-09-30 02:28:00,48.2,47.9,29.99,ESE,112,0.0,-999.0,99,-99.99,,,0.00,Acu-Link.com,2013-09-30 06:28:00,
2013-09-30 02:44:00,47.7,47.4,29.99,East,90,0.0,-999.0,99,-99.99,,,0.00,Acu-Link.com,2013-09-30 06:44:00,
2013-09-30 02:59:00,47.5,47.2,29.99,East,90,0.0,-999.0,99,-99.99,,,0.00,Acu-Link.com,2013-09-30 06:59:00,
2013-09-30 03:14:00,47.5,47.2,29.98,SSE,157,0.0,-999.0,99,-99.99,,,0.00,Acu-Link.com,2013-09-30 07:14:00,
2013-09-30 03:30:00,47.5,47.2,29.98,SSE,157,0.0,-999.0,99,-99.99,,,0.00,Acu-Link.com,2013-09-30 07:30:00,
2013-09-30 03:45:00,47.1,46.8,29.98,SSE,157,0.0,-999.0,99,-99.99,,,0.00,Acu-Link.com,2013-09-30 07:45:00,
2013-09-30 04:00:00,46.6,46.3,29.98,SSE,157,0.0,-999.0,99,-99.99,,,0.00,Acu-Link.com,2013-09-30 08:00:00,
2013-09-30 04:16:00,46.4,46.1,29.98,SSE,157,0.0,-999.0,99,-99.99,,,0.00,Acu-Link.com,2013-09-30 08:16:00,
2013-09-30 04:31:00,46.2,45.9,29.98,SSE,157,0.0,-999.0,99,-99.99,,,0.00,Acu-Link.com,2013-09-30 08:31:00,
2013-09-30 04:47:00,46.0,45.7,29.98,SSE,157,0.0,-999.0,99,-99.99,,,0.00,Acu-Link.com,2013-09-30 08:47:00,
2013-09-30 05:02:00,45.9,45.6,29.98,East,90,0.0,-999.0,99,-99.99,,,0.00,Acu-Link.com,2013-09-30 09:02:00,
2013-09-30 05:17:00,46.0,45.7,29.98,East,90,0.0,-999.0,99,-99.99,,,0.00,Acu-Link.com,2013-09-30 09:17:00,
2013-09-30 05:33:00,46.0,45.7,29.99,East,90,0.0,-999.0,99,-99.99,,,0.00,Acu-Link.com,2013-09-30 09:33:00,
2013-09-30 05:48:00,45.9,45.6,29.98,East,90,0.0,-999.0,99,-99.99,,,0.00,Acu-Link.com,2013-09-30 09:48:00,
2013-09-30 06:04:00,45.7,45.4,29.99,ENE,67,0.0,-999.0,99,-99.99,,,0.00,Acu-Link.com,2013-09-30 10:04:00,
2013-09-30 06:19:00,45.7,45.4,29.99,ESE,112,0.0,-999.0,99,-99.99,,,0.00,Acu-Link.com,2013-09-30 10:19:00,
2013-09-30 06:34:00,45.5,45.2,30.00,ENE,67,0.0,-999.0,99,-99.99,,,0.00,Acu-Link.com,2013-09-30 10:34:00,
2013-09-30 06:50:00,45.3,45.0,30.00,East,90,0.0,-999.0,99,-99.99,,,0.00,Acu-Link.com,2013-09-30 10:50:00,
2013-09-30 07:05:00,45.0,44.7,30.00,East,90,0.0,-999.0,99,-99.99,,,0.00,Acu-Link.com,2013-09-30 11:05:00,
2013-09-30 07:20:00,44.8,44.5,30.00,East,90,0.0,-999.0,99,-99.99,,,0.00,Acu-Link.com,2013-09-30 11:20:00,
2013-09-30 07:36:00,44.6,44.3,30.01,ESE,112,0.0,-999.0,99,-99.99,,,0.00,Acu-Link.com,2013-09-30 11:36:00,
2013-09-30 07:51:00,44.6,44.3,30.01,ESE,112,0.0,-999.0,99,-99.99,,,0.00,Acu-Link.com,2013-09-30 11:51:00,
2013-09-30 08:07:00,46.4,46.1,30.01,ESE,112,0.0,-999.0,99,-99.99,,,0.00,Acu-Link.com,2013-09-30 12:07:00,
2013-09-30 08:22:00,48.6,48.3,30.01,SSE,157,1.1,-999.0,99,-99.99,,,0.00,Acu-Link.com,2013-09-30 12:22:00,
2013-09-30 08:37:00,49.3,49.0,30.01,ENE,67,0.0,-999.0,99,-99.99,,,0.00,Acu-Link.com,2013-09-30 12:37:00,
2013-09-30 08:52:00,51.1,50.8,30.01,ENE,67,0.0,-999.0,99,-99.99,,,0.00,Acu-Link.com,2013-09-30 12:52:00,
2013-09-30 09:08:00,52.7,51.9,30.01,SE,135,0.0,-999.0,97,-99.99,,,0.00,Acu-Link.com,2013-09-30 13:08:00,
2013-09-30 09:23:00,54.5,52.5,30.01,SW,225,0.0,-999.0,93,-99.99,,,0.00,Acu-Link.com,2013-09-30 13:23:00,
2013-09-30 09:38:00,55.8,53.2,30.01,West,270,0.0,-999.0,91,-99.99,,,0.00,Acu-Link.com,2013-09-30 13:38:00,
2013-09-30 09:53:00,57.2,54.0,30.00,SW,225,0.0,-999.0,89,-99.99,,,0.00,Acu-Link.com,2013-09-30 13:53:00,
2013-09-30 10:09:00,62.1,57.2,30.00,SSW,202,0.0,-999.0,84,-99.99,,,0.00,Acu-Link.com,2013-09-30 14:09:00,
2013-09-30 10:24:00,62.4,56.1,30.00,SW,225,0.0,-999.0,80,-99.99,,,0.00,Acu-Link.com,2013-09-30 14:24:00,
2013-09-30 10:39:00,64.4,54.8,30.00,ESE,112,2.2,-999.0,71,-99.99,,,0.00,Acu-Link.com,2013-09-30 14:39:00,
2013-09-30 10:54:00,64.9,56.4,29.99,SSE,157,2.2,-999.0,74,-99.99,,,0.00,Acu-Link.com,2013-09-30 14:54:00,
2013-09-30 11:10:00,64.6,55.7,29.98,WSW,247,2.2,-999.0,73,-99.99,,,0.00,Acu-Link.com,2013-09-30 15:10:00,
2013-09-30 11:25:00,64.4,54.4,29.90,West,270,1.1,-999.0,70,-99.99,,,0.00,Acu-Link.com,2013-09-30 15:25:00,
2013-09-30 11:40:00,66.9,58.3,29.87,South,180,1.7,-999.0,74,-99.99,,,0.00,Acu-Link.com,2013-09-30 15:40:00,
2013-09-30 11:55:00,66.6,56.5,29.88,NNW,337,0.0,-999.0,70,-99.99,,,0.00,Acu-Link.com,2013-09-30 15:55:00,
2013-09-30 12:10:00,63.1,56.1,29.92,ENE,67,1.7,-999.0,78,-99.99,,,0.00,Acu-Link.com,2013-09-30 16:10:00,
2013-09-30 12:25:00,65.8,58.4,29.91,NW,315,1.7,-999.0,77,-99.99,,,0.00,Acu-Link.com,2013-09-30 16:25:00,
2013-09-30 12:41:00,65.1,57.3,29.88,NE,45,3.7,-999.0,76,-99.99,,,0.00,Acu-Link.com,2013-09-30 16:41:00,
2013-09-30 12:56:00,66.6,58.0,29.84,NE,45,3.7,-999.0,74,-99.99,,,0.00,Acu-Link.com,2013-09-30 16:56:00,
2013-09-30 13:11:00,66.7,58.1,29.83,South,180,3.2,-999.0,74,-99.99,,,0.00,Acu-Link.com,2013-09-30 17:11:00,
2013-09-30 13:27:00,68.4,58.6,29.82,WNW,292,4.2,-999.0,71,-99.99,,,0.00,Acu-Link.com,2013-09-30 17:27:00,
2013-09-30 13:42:00,66.6,58.8,29.89,East,90,2.7,-999.0,76,-99.99,,,0.00,Acu-Link.com,2013-09-30 17:42:00,
2013-09-30 13:57:00,66.0,57.5,29.90,NW,315,0.0,-999.0,74,-99.99,,,0.00,Acu-Link.com,2013-09-30 17:57:00,
2013-09-30 14:12:00,69.3,57.4,29.86,NW,315,4.2,-999.0,66,-99.99,,,0.00,Acu-Link.com,2013-09-30 18:12:00,
2013-09-30 14:28:00,67.8,54.7,29.88,NNE,22,0.0,-999.0,63,-99.99,,,0.00,Acu-Link.com,2013-09-30 18:28:00,
2013-09-30 14:43:00,66.7,55.4,29.91,NNE,22,0.0,-999.0,67,-99.99,,,0.00,Acu-Link.com,2013-09-30 18:43:00,
2013-09-30 14:58:00,66.4,56.3,29.89,NW,315,3.2,-999.0,70,-99.99,,,0.00,Acu-Link.com,2013-09-30 18:58:00,
2013-09-30 15:13:00,66.9,56.4,29.90,NNW,337,1.7,-999.0,69,-99.99,,,0.00,Acu-Link.com,2013-09-30 19:13:00,
2013-09-30 15:28:00,67.1,57.0,29.90,NW,315,2.7,-999.0,70,-99.99,,,0.00,Acu-Link.com,2013-09-30 19:28:00,
2013-09-30 15:43:00,67.1,56.6,29.90,ESE,112,0.0,-999.0,69,-99.99,,,0.00,Acu-Link.com,2013-09-30 19:43:00,
2013-09-30 15:59:00,67.5,57.8,29.91,South,180,1.1,-999.0,71,-99.99,,,0.00,Acu-Link.com,2013-09-30 19:59:00,
2013-09-30 16:14:00,70.5,59.0,29.91,SSE,157,0.0,-999.0,67,-99.99,,,0.00,Acu-Link.com,2013-09-30 20:14:00,
2013-09-30 16:29:00,70.7,58.8,29.91,East,90,0.0,-999.0,66,-99.99,,,0.00,Acu-Link.com,2013-09-30 20:29:00,
2013-09-30 16:45:00,69.3,59.1,29.91,SE,135,0.0,-999.0,70,-99.99,,,0.00,Acu-Link.com,2013-09-30 20:45:00,
2013-09-30 17:00:00,67.5,58.5,29.92,South,180,1.1,-999.0,73,-99.99,,,0.00,Acu-Link.com,2013-09-30 21:00:00,
2013-09-30 17:15:00,67.5,58.1,29.92,SE,135,0.0,-999.0,72,-99.99,,,0.00,Acu-Link.com,2013-09-30 21:15:00,
2013-09-30 17:31:00,66.0,58.2,29.92,SE,135,0.0,-999.0,76,-99.99,,,0.00,Acu-Link.com,2013-09-30 21:31:00,
2013-09-30 17:46:00,64.0,56.6,29.93,SE,135,0.0,-999.0,77,-99.99,,,0.00,Acu-Link.com,2013-09-30 21:46:00,
2013-09-30 18:01:00,63.5,56.5,29.93,SE,135,1.1,-999.0,78,-99.99,,,0.00,Acu-Link.com,2013-09-30 22:01:00,
2013-09-30 18:16:00,63.0,57.8,29.93,South,180,0.0,-999.0,83,-99.99,,,0.00,Acu-Link.com,2013-09-30 22:16:00,
2013-09-30 18:32:00,62.1,57.5,29.93,SE,135,0.0,-999.0,85,-99.99,,,0.00,Acu-Link.com,2013-09-30 22:32:00,
2013-09-30 18:47:00,61.3,57.1,29.94,East,90,0.0,-999.0,86,-99.99,,,0.00,Acu-Link.com,2013-09-30 22:47:00,
2013-09-30 19:02:00,60.8,56.9,29.94,ESE,112,0.0,-999.0,87,-99.99,,,0.00,Acu-Link.com,2013-09-30 23:02:00,
2013-09-30 19:18:00,59.9,56.6,29.95,SSE,157,0.0,-999.0,89,-99.99,,,0.00,Acu-Link.com,2013-09-30 23:18:00,
2013-09-30 19:33:00,59.5,56.3,29.96,South,180,0.0,-999.0,89,-99.99,,,0.00,Acu-Link.com,2013-09-30 23:33:00,
2013-09-30 19:48:00,59.0,56.1,29.96,South,180,0.0,-999.0,90,-99.99,,,0.00,Acu-Link.com,2013-09-30 23:48:00,
2013-09-30 20:04:00,58.6,56.3,29.97,South,180,0.0,-999.0,92,-99.99,,,0.00,Acu-Link.com,2013-10-01 00:04:00,
2013-09-30 20:19:00,58.3,56.3,29.97,SE,135,0.0,-999.0,93,-99.99,,,0.00,Acu-Link.com,2013-10-01 00:19:00,
2013-09-30 20:34:00,58.1,56.1,29.98,SSE,157,0.0,-999.0,93,-99.99,,,0.00,Acu-Link.com,2013-10-01 00:34:00,
2013-09-30 20:50:00,57.6,56.5,29.98,SW,225,0.0,-999.0,96,-99.99,,,0.00,Acu-Link.com,2013-10-01 00:50:00,
2013-09-30 21:05:00,57.6,56.8,29.97,SSE,157,0.0,-999.0,97,-99.99,,,0.00,Acu-Link.com,2013-10-01 01:05:00,
2013-09-30 21:20:00,57.2,56.6,29.98,SSW,202,0.0,-999.0,98,-99.99,,,0.00,Acu-Link.com,2013-10-01 01:20:00,
2013-09-30 21:35:00,57.0,56.7,29.98,SSW,202,0.0,-999.0,99,-99.99,,,0.00,Acu-Link.com,2013-10-01 01:35:00,
2013-09-30 21:50:00,57.0,56.7,29.98,South,180,0.0,-999.0,99,-99.99,,,0.00,Acu-Link.com,2013-10-01 01:50:00,
2013-09-30 22:06:00,56.5,56.2,29.98,SSE,157,0.0,-999.0,99,-99.99,,,0.00,Acu-Link.com,2013-10-01 02:06:00,
2013-09-30 22:21:00,55.2,54.9,29.98,South,180,0.0,-999.0,99,-99.99,,,0.00,Acu-Link.com,2013-10-01 02:21:00,
2013-09-30 22:36:00,54.3,54.0,29.99,South,180,0.0,-999.0,99,-99.99,,,0.00,Acu-Link.com,2013-10-01 02:36:00,
2013-09-30 22:51:00,53.8,53.5,30.00,East,90,0.0,-999.0,99,-99.99,,,0.00,Acu-Link.com,2013-10-01 02:51:00,
2013-09-30 23:07:00,53.1,52.8,30.00,SSE,157,0.0,-999.0,99,-99.99,,,0.00,Acu-Link.com,2013-10-01 03:07:00,
2013-09-30 23:22:00,52.3,52.0,29.99,SSE,157,0.0,-999.0,99,-99.99,,,0.00,Acu-Link.com,2013-10-01 03:22:00,
2013-09-30 23:37:00,51.8,51.5,30.00,SSE,157,0.0,-999.0,99,-99.99,,,0.00,Acu-Link.com,2013-10-01 03:37:00,
2013-09-30 23:53:00,51.6,51.3,29.99,SSE,157,0.0,-999.0,99,-99.99,,,0.00,Acu-Link.com,2013-10-01 03:53:00,